User: anonymous   Login
Location: Roanoke
(37.2710°N, 79.9420°W)
Time: 08:05:56
(UTC-04:00)
Language:

FENGYUN 3A - Orbit

View from above orbital plane
View from above orbital plane
View from above satellite
View from above satellite

Ground track
Ground track

The orbit data is extracted from the following two-line orbital elements,

1 32958U 08026A   17085.89437409 +.00000019 +00000-0 +28595-4 0  9991
2 32958 098.4175 118.6494 0010083 152.2523 207.9191 14.19654543457667
Epoch (UTC): 26 March 2017 21:27:53
Eccentricity: 0.0010083
inclination: 98.4175°
perigee height: 819 km
apogee height: 834 km
right ascension of ascending node: 118.6494°
argument of perigee: 152.2523°
revolutions per day: 14.19654543
mean anomaly at epoch: 207.9191°
orbit number at epoch: 45766

The dashed part of the orbit path shows where the satellite is in the earth's shadow,  

DLR